Location: Ab? ar R?sh Ba?r?
(24.1861°N, 32.8847°E)
Time: 22:26:04
(UTC+00:00)

Cosmos 614 Rocket - Pass Details

Date: 24 October 2021
Orbit: 733 x 763 km, 74.1° (Epoch: 04 December)

Event Time Altitude Azimuth Distance (km) Brightness Sun altitude
Rises 17:05:20 0° 345° (NNW) 3,166 7.4 -25.9°
Reaches altitude 10° 17:07:41 10° 346° (NNW) 2,245 6.5 -26.4°
Enters shadow 17:11:34 54° 347° (NNW) 901 4.3 -27.3°
